Regional Weather Roundup
Issued by NWS

Home | Current Version | Previous Version | Graphics & Text | Print | Product List | Glossary On
Versions: 1 2 3 4 5 6 7 8 9 10 11 12 13 14 15 16 17 18 19 20 21 22 23 24 25 26 27 28 29 30 31 32 33 34 35 36 37 38 39 40 41 42 43 44 45 46 47 48 49 50
000
ASUS43 KTOP 230459
RWRKS

WEATHER ROUNDUP FOR KANSAS
NATIONAL WEATHER SERVICE GOODLAND KS
1200 AM CDT TUE MAY 23 2017

NOTE:  "FAIR" INDICATES FEW OR NO CLOUDS BELOW 12,000 FEET WITH NO
SIGNIFICANT WEATHER AND/OR OBSTRUCTIONS TO VISIBILITY.

KSZ001>006-013>018-027>032-041>047-230600-
NORTHWEST KANSAS

CITY           SKY/WX    TMP DP  RH WIND       PRES   REMARKS
GOODLAND       CLOUDY    47  44  90 NW15      30.11S
HAYS           CLEAR     56  48  74 N15       29.99R
HILL CITY      CLOUDY    54  48  80 N17       30.03R
RUSSELL        CLOUDY    54  51  90 N15       29.95F
$$

KSZ061>065-074>080-084>089-230600-
SOUTHWEST KANSAS

CITY           SKY/WX    TMP DP  RH WIND       PRES   REMARKS
DODGE CITY     CLOUDY    52  47  83 NW5       30.03R
ELKHART          N/A     51  40  66 MISG        N/A
GARDEN CITY    CLOUDY    52  46  80 N12       30.03S
GREAT BEND     CLOUDY    58  51  78 N16G28    29.97R
LIBERAL        CLOUDY    55  48  77 NE13      30.07S
$$

KSZ066>073-081>083-090>101-230600-
SOUTHEAST KANSAS

CITY           SKY/WX    TMP DP  RH WIND       PRES   REMARKS
CHANUTE        CLOUDY    63  56  78 CALM      29.91S
COFFEYVILLE    CLOUDY    63  57  81 W6        29.92S
HUTCHINSON     CLOUDY    58  56  93 S3        29.93R
MEDICINE LODGE   N/A     55  53  93 NW5       29.95S
NEWTON         CLOUDY    55  55 100 N3        29.93F
PARSONS        CLOUDY    62  57  83 W6        29.93S
WICHITA INTL   MOCLDY    54  54 100 CALM      29.93R FOG
WICHITA JABRA  FOG       51  51 100 N6        29.94R VSB 1/4
WICHITA MCCONL CLEAR     57  55  94 NW3       29.93S
WINFIELD       CLOUDY    59  59 100 W12       29.94S
$$

KSZ007>012-019>026-033>040-048>060-102>105-230600-
NORTHEAST KANSAS

CITY           SKY/WX    TMP DP  RH WIND       PRES   REMARKS
CONCORDIA      CLOUDY    54  53  97 W8        29.93S
EMPORIA        CLEAR     54  54 100 CALM      29.90F
LAWRENCE       FOG       55  55 100 CALM      29.89F VSB 1/4
MANHATTAN      CLOUDY    58  56  93 CALM      29.89S
OLATHE IND     CLOUDY    58  55  90 E5        29.91F
OLATHE EXE     PTCLDY    55  55 100 CALM      29.91F
SALINA         CLOUDY    59  55  87 SW3       29.92F
TOPEKA BILLARD CLEAR     57  57 100 CALM      29.89F
TOPEKA FORBES  CLEAR     54  53  97 W3        29.89F FOG
$$




USA.gov is the U.S. government's official web portal to all federal, state and local government web resources and services.